Back to catalog

FENGYUN 1C DEB

AliveSSO
NORAD 30371·DEBRIS·🇨🇳 China

Launched May 10, 1999 from Taiyuan Satellite Launch Center

Loading…

Next Passes (next 24 hours)

TLE

FreshSource: Space-Track

Epoch: Sep 14, 2026, 02:26 UTC

1 30371U 99025ACJ 26257.10207677  .00001436  00000-0  55810-3 0  9997
2 30371  98.5522 301.0054 0006849 228.1022 159.1420 14.31380140 18392

Track FENGYUN 1C DEB in real time with AllMySat

Download on the App Store